x

9439040 - Astoria, Or (asto3) Weather Station

10:54am - Sat 30th Jul 2016 All times are PDT. -7 hours from GMT.

  • Wind
    2mph, 6mph gusts
  • Sea Temp 70°f
  • 空気 Temp 63°f
  • Sea Pressure 1017.1mb
  • 9439040 - Astoria, Or
  • 9439040 - Astoria, Or

More Historic Weather Station data

Upgrade to MSW Pro to gain access to the past 30 days of data for over 8000 Wavebouys and Weather Stations around the globe.

Join Pro

Comparision Forecast

View Surf forecast
   
Sat 07/30 10:54am 2 6 mph 1017.1mb 70f 63f
10:48am 3 9 mph 1017.1mb 70f 63f
10:42am 1 6 mph 1017.1mb 70f 64f
10:36am 2 6 mph 1017mb 70f 63f
10:30am 2 7 mph 1017mb 70f 63f
10:24am 1 9 mph 1017mb 70f 63f
10:18am 1 7 mph 1017mb 70f 64f
10:12am 1 5 mph 1017mb 70f 63f
10:06am 2 6 mph 1017mb 70f 62f
10:00am 2 9 mph 1017mb 70f 62f
9:54am 1 7 mph 1017mb 70f 63f
9:48am 1 8 mph 1016.9mb 70f 62f
9:42am 2 9 mph 1016.9mb 70f 62f
9:36am 5 9 mph 1016.9mb 70f 62f
9:30am 3 11 mph 1016.9mb 70f 62f
9:24am 6 14 mph 1016.8mb 70f 61f
9:18am 7 9 mph 1016.7mb 70f 61f
9:12am 6 9 mph 1016.7mb 70f 61f
9:06am 3 15 mph 1016.8mb 70f 61f
9:00am 6 15 mph 1016.8mb 70f 61f
8:54am 9 14 mph 1016.7mb 70f 61f
8:48am 13 16 mph 1016.6mb 70f 60f
8:42am 10 16 mph 1016.5mb 70f 60f
8:36am 8 16 mph 1016.5mb 70f 61f
8:30am 3 9 mph 1016.5mb 69f 61f
8:24am 2 11 mph 1016.4mb 69f 61f
8:18am 11 14 mph 1016.3mb 69f 60f
8:12am 5 14 mph 1016.3mb 69f 60f
8:06am 3 9 mph 1016.3mb 69f 61f
8:00am 5 9 mph 1016.3mb 69f 60f
7:54am 6 16 mph 1016.3mb 69f 60f
7:48am 8 14 mph 1016.2mb 69f 60f
7:42am 3 11 mph 1016.2mb 69f 61f
7:36am 10 14 mph 1016.2mb 69f 60f
7:30am 6 14 mph 1016.2mb 69f 60f
7:24am 6 14 mph 1016.2mb 69f 60f
7:18am 13 14 mph 1016.2mb 69f 60f
7:12am 9 13 mph 1016.1mb 69f 60f
7:06am 11 13 mph 1016mb 69f 60f
6:54am 9 13 mph 1016mb 69f 60f
6:48am 1 13 mph 1016mb 69f 60f
6:42am 10 15 mph 1016mb 69f 60f
6:36am 6 11 mph 1015.9mb 69f 60f
6:30am 7 14 mph 1016mb 69f 60f
6:24am 9 13 mph 1015.9mb 69f 60f
6:18am 7 10 mph 1015.8mb 69f 60f
6:12am 6 11 mph 1015.9mb 69f 60f
6:06am 5 10 mph 1015.9mb 69f 60f
6:00am 7 11 mph 1015.9mb 69f 60f
5:54am 9 14 mph 1015.8mb 69f 60f
5:48am 3 11 mph 1015.8mb 69f 60f
5:42am 8 15 mph 1015.8mb 69f 60f
5:36am 8 13 mph 1015.8mb 69f 60f
5:30am 7 16 mph 1015.8mb 69f 60f
5:24am 6 11 mph 1015.8mb 69f 60f
5:18am 7 14 mph 1015.8mb 68f 60f
5:12am 9 14 mph 1015.7mb 68f 60f
5:06am 8 10 mph 1015.7mb 68f 60f
5:00am 8 14 mph 1015.7mb 68f 60f
4:54am 8 14 mph 1015.7mb 68f 60f
4:48am 7 13 mph 1015.7mb 68f 60f
4:42am 8 13 mph 1015.7mb 68f 60f
4:36am 8 14 mph 1015.7mb 68f 60f
4:30am 6 13 mph 1015.6mb 68f 60f
4:24am 9 13 mph 1015.6mb 68f 60f
4:18am 7 14 mph 1015.7mb 68f 60f
4:12am 9 14 mph 1015.7mb 68f 60f
4:06am 7 15 mph 1015.7mb 68f 60f
4:00am 1 14 mph 1015.7mb 68f 60f
3:54am 6 11 mph 1015.7mb 68f 60f
3:48am 3 10 mph 1015.8mb 68f 60f
3:42am 8 13 mph 1015.8mb 68f 59f
3:36am 7 11 mph 1015.7mb 68f 60f
3:30am 3 15 mph 1015.8mb 68f 60f
3:24am 9 11 mph 1015.8mb 68f 59f
3:18am 9 11 mph 1015.9mb 68f 59f
3:12am 10 13 mph 1015.8mb 68f 60f
3:06am 6 13 mph 1015.9mb 68f 59f
3:00am 11 17 mph 1015.9mb 68f 59f
2:54am 9 14 mph 1015.9mb 68f 59f
2:48am 11 17 mph 1015.9mb 68f 59f
2:42am 7 14 mph 1015.9mb 68f 59f
2:36am 9 14 mph 1015.9mb 68f 60f
2:30am 8 14 mph 1015.9mb 68f 59f
2:24am 13 16 mph 1016mb 68f 59f
2:18am 6 15 mph 1016mb 68f 60f
2:12am 10 15 mph 1016.1mb 68f 59f
2:06am 6 10 mph 1016.1mb 68f 60f
2:00am 8 14 mph 1016.1mb 68f 60f
1:54am 6 15 mph 1016.1mb 68f 60f
1:48am 8 14 mph 1016.2mb 68f 60f
1:42am 9 15 mph 1016.2mb 68f 59f
1:36am 9 14 mph 1016.2mb 68f 60f
1:30am 6 11 mph 1016.2mb 68f 60f
1:24am 7 13 mph 1016.2mb 68f 60f
1:18am 7 13 mph 1016.3mb 68f 60f
1:12am 5 11 mph 1016.3mb 68f 60f
1:06am 7 13 mph 1016.3mb 68f 60f
1:00am 10 13 mph 1016.3mb 68f 60f
12:54am 10 14 mph 1016.3mb 68f 60f
12:48am 6 10 mph 1016.3mb 69f 60f
12:42am 10 14 mph 1016.2mb 69f 60f
12:36am 6 10 mph 1016.2mb 69f 60f
12:30am 7 14 mph 1016.2mb 69f 60f
12:24am 9 13 mph 1016.2mb 69f 60f
12:18am 10 16 mph 1016.2mb 69f 60f
12:12am 9 14 mph 1016.2mb 69f 60f
12:06am 10 14 mph 1016.2mb 69f 60f
12:00am 8 14 mph 1016.1mb 69f 60f
Fri 07/29 11:54pm 10 14 mph 1016.1mb 69f 60f
11:48pm 7 11 mph 1016.1mb 69f 60f
11:42pm 8 14 mph 1016.2mb 69f 60f
11:36pm 10 14 mph 1016.2mb 69f 60f
11:30pm 7 13 mph 1016.3mb 69f 60f
11:24pm 10 15 mph 1016.3mb 69f 60f
11:18pm 7 15 mph 1016.3mb 69f 60f
11:12pm 8 14 mph 1016.3mb 69f 61f
11:06pm 10 14 mph 1016.3mb 69f 60f
11:00pm 9 16 mph 1016.3mb 69f 60f
10:54pm 9 14 mph 1016.4mb 69f 60f
10:48pm 9 15 mph 1016.4mb 69f 60f
10:42pm 11 14 mph 1016.5mb 69f 60f
10:36pm 10 14 mph 1016.6mb 69f 61f
10:30pm 10 14 mph 1016.5mb 69f 60f
10:24pm 10 15 mph 1016.5mb 69f 61f
10:18pm 13 16 mph 1016.5mb 68f 61f
10:12pm 11 16 mph 1016.5mb 68f 61f
10:06pm 11 14 mph 1016.5mb 68f 61f
10:00pm 11 14 mph 1016.4mb 69f 61f
9:54pm 10 13 mph 1016.4mb 69f 61f
9:48pm 8 10 mph 1016.4mb 69f 61f
9:42pm 6 10 mph 1016.4mb 69f 61f
9:36pm 7 10 mph 1016.4mb 70f 61f
9:30pm 6 10 mph 1016.3mb 70f 61f
9:24pm 7 10 mph 1016.3mb 70f 62f
9:18pm 5 8 mph 1016.3mb 70f 62f
9:12pm 2 7 mph 1016.3mb 71f 62f
9:06pm 2 5 mph 1016.3mb 71f 62f
9:00pm 5 6 mph 1016.2mb 71f 62f
8:54pm 6 7 mph 1016.1mb 71f 62f
8:48pm 6 13 mph 1016.1mb 71f 62f
8:42pm 9 13 mph 1016.1mb 71f 62f
8:36pm 5 10 mph 1016.1mb 71f 63f
8:30pm  -  mph 1016mb - -
8:24pm  -  mph 1016mb - -
8:18pm 2 8 mph - 71f -
8:12pm 5 11 mph - 71f -
8:06pm 6 8 mph - 71f -
8:00pm  -  mph 1015.9mb 71f -
7:54pm  -  mph 1015.9mb 71f -
7:48pm 6 9 mph 1015.9mb 71f -
7:42pm 3 8 mph 1015.9mb 71f -
7:36pm 7 9 mph 1016mb 71f -
7:30pm 3 10 mph 1016mb 71f -
7:24pm 1 7 mph 1016mb 71f -
7:18pm 2 5 mph 1015.9mb 71f -
7:12pm 2 5 mph 1015.9mb 71f -
7:06pm 1 6 mph 1015.8mb 71f -
7:00pm 2 5 mph 1015.9mb 71f 66f
6:54pm 2 5 mph 1015.9mb 71f 66f
6:48pm 1 6 mph 1015.9mb 71f -
6:42pm 1 5 mph 1015.9mb 71f -
6:36pm 1 6 mph 1015.8mb 71f -
6:30pm  -  5 mph 1015.8mb 71f -
6:24pm 1 5 mph 1015.7mb 71f -
6:18pm 1 3 mph - 71f -
6:12pm 1 5 mph - 71f -
6:06pm 1 3 mph - 71f -
6:00pm  -  mph 1015.7mb 71f -
5:54pm  -  mph 1015.8mb 70f -
5:48pm 6 10 mph 1015.7mb 70f -
5:42pm 8 10 mph 1015.7mb 70f -
5:36pm 9 13 mph 1015.8mb 69f -
5:30pm 6 14 mph 1015.8mb 69f -
5:24pm 7 14 mph 1015.8mb 70f -
5:18pm 7 11 mph - 70f 67f
5:12pm 2 6 mph - 70f 69f
5:06pm 1 8 mph - 70f 69f
5:00pm  -  mph - 70f -
4:54pm  -  mph - 70f -
4:48pm  -  mph - 71f -
4:42pm  -  mph - 71f -
4:36pm  -  mph - 71f -
4:30pm  -  mph - 71f -
4:24pm  -  mph - 71f -
4:18pm  -  mph - 71f -
4:12pm  -  mph - 71f -
4:06pm  -  mph - 71f -
4:00pm  -  mph - 71f -
3:54pm  -  mph - 71f -
3:48pm  -  mph - 71f -
3:42pm  -  mph - 71f -
3:36pm  -  mph - 70f -
3:30pm  -  mph - 70f -
3:24pm  -  mph - 70f -
3:18pm  -  mph 1016mb 70f -
3:12pm  -  mph 1016mb 70f -
3:06pm  -  mph 1016mb 70f -
3:00pm  -  mph 1016mb 70f 65f
2:54pm  -  mph 1016mb 70f 64f
2:48pm 15 21 mph 1016mb 70f 64f
2:42pm 13 20 mph 1016.1mb 70f 64f
2:36pm 13 18 mph 1016.1mb 70f 64f
2:30pm 13 20 mph 1016.2mb 70f 64f
2:24pm 14 20 mph 1016.2mb 70f 63f
2:18pm 13 18 mph 1016.3mb 70f 63f
2:12pm 11 20 mph 1016.2mb 70f 63f
2:06pm 11 17 mph 1016.3mb 70f 63f
2:00pm 11 18 mph 1016.4mb 70f 63f
1:54pm 13 18 mph 1016.4mb 70f 63f
1:48pm 9 17 mph 1016.4mb 70f 63f
1:42pm 11 16 mph 1016.5mb 69f 63f
1:36pm 7 15 mph 1016.5mb 67f 63f
1:30pm 7 14 mph 1016.5mb 67f 63f
1:24pm 6 14 mph 1016.5mb 67f 64f
1:18pm 5 11 mph 1016.6mb 68f 64f
1:12pm 5 11 mph 1016.6mb 69f 64f
1:06pm 5 11 mph 1016.6mb 69f 64f
1:00pm 3 10 mph 1016.5mb 69f 63f
12:54pm 2 9 mph 1016.6mb 69f 64f
12:48pm 5 11 mph 1016.7mb 69f 63f
12:42pm 3 9 mph 1016.6mb 69f 64f
12:36pm 5 9 mph 1016.6mb 70f 63f
12:30pm 5 11 mph 1016.7mb 70f 63f
12:24pm 3 10 mph 1016.7mb 70f 63f
12:18pm 3 9 mph 1016.8mb 70f 64f
12:12pm 1 5 mph 1016.8mb 69f 65f
12:06pm 1 5 mph 1016.8mb 69f 65f
12:00pm 1 6 mph 1016.8mb 69f 64f
11:54am 2 7 mph 1016.8mb 69f 64f
11:48am 2 6 mph 1016.8mb 69f 64f
11:42am 2 7 mph 1016.8mb 69f 64f
11:36am 2 7 mph 1016.8mb 69f 63f
11:30am 3 8 mph 1016.8mb 69f 63f
11:24am 3 8 mph 1016.8mb 69f 63f
11:18am 6 8 mph 1016.8mb 69f 62f
11:12am 3 8 mph 1016.8mb 69f 62f
11:06am  -  5 mph 1016.8mb 69f 63f
11:00am 2 6 mph 1016.8mb 69f 62f
10:54am 3 6 mph 1016.9mb 70f 62f
10:48am 2 5 mph 1016.9mb 70f 62f
10:42am 1 5 mph 1017mb 70f 62f
10:36am 2 5 mph 1017mb 70f 61f
10:30am 2 7 mph 1017.1mb 70f 61f
10:24am 3 5 mph 1017.1mb 70f 61f
10:18am 3 6 mph 1017.2mb 70f 61f
10:12am 2 6 mph 1017.2mb 70f 61f
10:06am 3 6 mph 1017.2mb 70f 60f
10:00am 5 7 mph 1017.2mb 70f 60f
9:54am 5 6 mph 1017.2mb 70f 60f
9:48am 3 6 mph 1017.2mb 70f 60f
9:42am 3 6 mph 1017.3mb 70f 60f
9:36am 6 8 mph 1017.3mb 70f 60f
9:30am 5 8 mph 1017.4mb 70f 60f
9:24am 6 8 mph 1017.4mb 70f 60f
9:18am 3 8 mph 1017.4mb 70f 60f
9:12am 7 10 mph 1017.4mb 70f 59f
9:06am 7 9 mph 1017.3mb 70f 59f
9:00am 7 10 mph 1017.3mb 70f 60f
8:54am 6 8 mph 1017.3mb 70f 60f
8:48am 5 11 mph 1017.3mb 70f 60f
8:42am 6 8 mph 1017.3mb 70f 60f
8:36am 7 9 mph 1017.3mb 70f 59f
8:30am 7 9 mph 1017.3mb 70f 59f
8:24am 7 9 mph 1017.2mb 70f 59f
8:18am 6 8 mph 1017.2mb 70f 59f
8:12am 6 8 mph 1017.1mb 70f 59f
8:06am 5 7 mph 1017.1mb 70f 59f
8:00am 5 7 mph 1017.1mb 70f 59f
7:54am 6 7 mph 1017.2mb 70f 59f
7:48am 6
mph
1017.2mb 70f 59f
7:42am 5 6 mph 1017.2mb 70f 58f
7:36am 5 6 mph 1017.2mb 70f 58f
7:30am 5 7 mph 1017.2mb 70f 59f
7:24am 7 8 mph 1017.2mb 69f 59f
7:18am 5 6 mph 1017.2mb 69f 58f
7:12am 5 7 mph 1017.1mb 69f 58f
7:06am 3 6 mph 1017.1mb 69f 58f
7:00am 3 6 mph 1017.1mb 69f 58f
6:54am 5 7 mph 1017.1mb 69f 58f
6:48am 3 6 mph 1017.1mb 69f 58f
6:42am 5 6 mph 1017.1mb 69f 58f
6:36am 5 6 mph 1017.1mb 69f 58f
6:30am 3 5 mph 1017.1mb 69f 58f
6:24am 5 6 mph 1017mb 69f 59f
6:18am 3 5 mph 1017mb 69f 59f
6:12am 3 5 mph 1017.1mb 69f 59f
6:06am 3
mph
1017mb 69f 59f
6:00am 2 5 mph 1017mb 69f 59f
5:54am 2 3 mph 1017.1mb 69f 59f
5:48am 2 6 mph 1017mb 69f 60f
5:42am 3 7 mph 1017mb 69f 60f
5:36am 5 8 mph 1017mb 69f 60f
5:30am 6 8 mph 1017mb 69f 59f
5:24am 6 9 mph 1017mb 69f 59f
5:18am 7 9 mph 1017mb 69f 60f
5:12am 7 10 mph 1017mb 69f 60f
5:06am 8 10 mph 1017mb 69f 60f
5:00am 6 8 mph 1017mb 69f 60f
4:54am  -  3 mph 1017mb 69f 60f
4:48am  -  3 mph 1017.1mb 69f 60f
4:42am 2 5 mph 1017.1mb 69f 60f
4:36am 2 5 mph 1017mb 68f 60f
4:30am 1 3 mph 1017mb 68f 60f
4:24am  -  1 mph 1017mb 68f 60f
4:18am  -  2 mph 1017.1mb 68f 60f
4:12am 1 3 mph 1017.1mb 68f 59f
4:06am 3 6 mph 1017.2mb 68f 59f
4:00am 3 6 mph 1017.2mb 68f 59f
3:54am 2 5 mph 1017.2mb 68f 60f
3:48am 3 5 mph 1017.2mb 68f 60f
3:42am 3 5 mph 1017.3mb 68f 60f
3:36am 3 5 mph 1017.3mb 68f 60f
3:30am 2 3 mph 1017.3mb 68f 60f
3:24am 3 7 mph 1017.3mb 68f 60f
3:18am 6 8 mph 1017.3mb 68f 60f
3:12am 6 8 mph 1017.3mb 69f 60f
3:06am 7 8 mph 1017.3mb 68f 60f
3:00am 5 6 mph 1017.3mb 69f 60f
2:54am 6 7 mph 1017.3mb 69f 59f
2:48am 9 14 mph 1017.3mb 69f 60f
2:42am 9 13 mph 1017.3mb 69f 60f
2:36am 8 10 mph 1017.3mb 69f 60f
2:30am 5 9 mph 1017.3mb 69f 60f
2:24am 8 14 mph 1017.4mb 68f 60f
2:18am 10 14 mph 1017.4mb 69f 60f
2:12am 10 13 mph 1017.4mb 69f 60f
2:06am 8 13 mph 1017.4mb 69f 60f
2:00am 10 14 mph 1017.4mb 68f 60f
1:54am 9 14 mph 1017.4mb 68f 60f
1:48am 9 13 mph 1017.4mb 68f 60f
1:42am 7 9 mph 1017.4mb 68f 60f
1:36am 3 6 mph 1017.4mb 68f 59f
1:30am 6 7 mph 1017.4mb 68f 60f
1:24am 7 10 mph 1017.5mb 68f 60f
1:18am 9 11 mph 1017.5mb 68f 60f
1:12am 8 11 mph 1017.5mb 68f 60f
1:06am 6 8 mph 1017.6mb 68f 60f
1:00am 5 7 mph 1017.5mb 68f 60f
12:54am 5 8 mph 1017.5mb 68f 59f
12:48am 6 8 mph 1017.5mb 68f 60f
12:42am 2 3 mph 1017.5mb 68f 59f
12:36am 3 5 mph 1017.5mb 68f 59f
12:30am 2 3 mph 1017.5mb 68f 59f
12:24am 1 3 mph 1017.5mb 68f 59f
12:18am 2 3 mph 1017.6mb 68f 59f
12:12am 2 3 mph 1017.6mb 68f 59f
12:06am 3 5 mph 1017.6mb 68f 59f
12:00am 3 5 mph 1017.6mb 69f 59f
Thu 07/28 11:54pm 3 5 mph 1017.7mb 69f 59f
11:48pm 3 5 mph 1017.7mb 69f -
11:42pm 3 5 mph 1017.7mb 69f -
11:36pm 2 3 mph 1017.7mb 69f -
11:30pm 2 3 mph 1017.8mb 69f 59f
11:24pm 3
mph
1017.8mb 69f 59f
11:18pm 3
mph
1017.8mb 69f 59f
11:12pm 2 3 mph 1017.8mb 69f 59f
11:06pm 2 5 mph 1017.8mb 69f 59f
11:00pm 2 8 mph 1017.8mb 69f 60f
10:54pm 5 7 mph 1017.8mb 69f 60f
10:48pm 6 8 mph 1017.8mb 69f -
10:42pm 6 9 mph 1017.8mb 69f -
10:36pm 7 10 mph 1017.8mb 69f -
10:30pm 8 14 mph 1017.9mb 69f 60f
10:24pm 8 13 mph 1017.9mb 69f 60f
10:18pm 10 15 mph 1017.9mb 69f 59f
10:12pm 10 15 mph 1017.9mb 69f 60f
10:06pm 13 16 mph 1017.9mb 69f 60f
10:00pm 10 14 mph 1017.9mb 69f 60f
9:54pm 10 14 mph 1017.8mb 69f 60f
9:48pm 8 11 mph 1017.8mb 69f 61f
9:42pm 7 11 mph 1017.8mb 69f 61f
9:36pm 7 11 mph 1017.7mb 69f 61f
9:30pm 7 11 mph 1017.6mb 69f 61f
9:24pm 8 13 mph 1017.5mb 69f 61f
9:18pm 7 11 mph 1017.5mb 69f 61f
9:12pm 6 11 mph 1017.5mb 69f 62f
9:06pm 7 11 mph 1017.5mb 69f 62f
9:00pm 9 11 mph 1017.5mb 68f 62f
8:54pm 9 11 mph 1017.4mb 68f 62f
8:48pm 10 13 mph 1017.4mb 69f 62f
8:42pm 9 11 mph 1017.4mb 69f 62f
8:36pm 8 13 mph 1017.4mb 70f 62f
8:30pm 10 13 mph 1017.3mb 70f 64f
8:24pm 9 13 mph 1017.3mb 71f 64f
8:18pm  -  mph 1017.2mb 71f -
8:12pm  -  mph 1017.1mb 71f -
8:06pm  -  mph 1017.1mb 71f -
8:00pm 11 15 mph - 71f -
7:54pm 11 15 mph - 70f -
7:48pm 9 14 mph 1017.1mb 71f -
7:42pm 10 15 mph 1017.1mb 71f -
7:36pm 11 17 mph 1017.2mb 71f -
7:30pm 15 17 mph - - -
7:24pm 14 16 mph - - -
7:18pm  -  mph - 71f 67f
7:12pm  -  mph - 71f 67f
7:06pm  -  mph - 71f 67f
7:00pm  -  mph 1017.2mb - -
6:54pm  -  mph 1017.2mb - -
6:48pm 11 16 mph 1017.3mb 71f -
6:42pm 11 17 mph 1017.4mb 71f -
6:36pm 14 18 mph 1017.3mb 71f -
6:30pm 11 16 mph 1017.4mb - -
6:24pm 11 16 mph 1017.5mb - -
6:18pm 13 17 mph - 71f -
6:12pm 11 16 mph - 71f -
6:06pm 11 16 mph - 71f -
6:00pm  -  mph - 71f 69f
5:54pm  -  mph - 70f 69f
5:48pm 13 16 mph 1017.6mb 70f -
5:42pm 9 14 mph 1017.7mb 70f -
5:36pm 10 17 mph 1017.7mb 71f -
5:30pm 9 15 mph 1017.8mb 71f -
5:24pm 11 16 mph 1017.8mb 70f -
5:18pm 10 17 mph 1017.9mb 71f -
5:12pm 11 18 mph 1017.9mb 71f -
5:06pm 14 17 mph 1017.8mb 71f -
5:00pm  -  mph - 71f 67f
4:54pm  -  mph - 71f 67f
4:48pm 13 20 mph 1018mb - -
4:42pm 15 20 mph 1018mb - -
4:36pm 14 18 mph 1018.1mb - -
4:30pm 13 18 mph - - -
4:24pm 11 18 mph - - -
4:18pm 10 17 mph - 71f -
4:12pm 10 17 mph - 71f -
4:06pm 13 18 mph - 71f -
4:00pm  -  mph - 71f -
3:54pm  -  mph - 71f -
3:48pm  -  mph - 71f -
3:42pm  -  mph - 71f -
3:36pm  -  mph - 71f -
3:30pm 7 13 mph 1018.3mb 70f -
3:24pm 11 17 mph 1018.3mb 70f -
3:18pm 10 17 mph 1018.3mb 71f 67f
3:12pm 10 17 mph 1018.4mb 71f 67f
3:06pm 11 16 mph 1018.5mb 71f 66f
3:00pm 11 20 mph 1018.6mb 71f -
2:54pm 15 21 mph 1018.7mb 71f -
2:48pm 14 18 mph - 71f 65f
2:42pm 11 18 mph - 71f 65f
2:36pm 14 18 mph - 71f 65f
2:30pm 13 16 mph 1018.8mb 71f 65f
2:24pm 11 17 mph 1018.9mb 71f 65f
2:18pm 9 17 mph 1018.9mb 70f 65f
2:12pm 11 17 mph 1019mb 70f 65f
2:06pm 13 17 mph 1019mb 70f 64f
2:00pm 14 18 mph 1019.1mb 70f 65f
1:54pm 11 17 mph 1019.2mb 70f 65f
1:48pm 8 17 mph 1019.3mb 70f 65f
1:42pm 6 13 mph 1019.4mb 70f 65f
1:36pm 8 15 mph 1019.5mb 70f 65f
1:30pm 9 15 mph 1019.5mb 70f 65f
1:24pm 7 13 mph 1019.6mb 70f 65f
1:18pm 6 10 mph 1019.6mb 70f 65f
1:12pm 6 13 mph 1019.6mb 70f 65f
1:06pm 8 14 mph 1019.6mb 70f 65f
1:00pm 8 14 mph 1019.7mb 69f 65f
12:54pm 6 11 mph 1019.8mb 69f 65f
12:48pm 5 9 mph 1019.8mb 69f 65f
12:42pm 6 11 mph 1019.9mb 69f 65f
12:36pm 6 9 mph 1019.9mb 69f 65f
12:30pm 5 9 mph 1020mb 69f 65f
12:24pm 5 13 mph 1020mb 69f 65f
12:18pm 6 10 mph 1020mb 69f 65f
12:12pm 3 13 mph 1020mb 69f 65f
12:06pm 5 13 mph 1020mb 69f 64f
12:00pm 6 11 mph 1020.1mb 69f 64f
11:54am 5 11 mph 1020.2mb 68f 65f
11:48am 5 10 mph 1020.1mb 68f 64f
11:42am 3 8 mph 1020.1mb 68f 64f
11:36am 5 8 mph 1020.1mb 68f 64f
11:30am 6 9 mph 1020.1mb 68f 63f
11:24am 5 9 mph 1020.2mb 69f 63f
11:18am 3 9 mph 1020.4mb 69f 63f
11:12am 6 9 mph 1020.4mb 70f 62f
11:06am 6 9 mph 1020.4mb 70f 62f
11:00am 5 7 mph 1020.4mb 70f 62f
10:54am 3 8 mph 1020.5mb 70f 62f
10:48am 6 8 mph 1020.5mb 70f 61f
10:42am 5 8 mph 1020.4mb 70f 62f
10:36am 2 8 mph 1020.5mb 70f 62f
10:30am 5 8 mph 1020.5mb 70f 62f
10:24am 2 6 mph 1020.5mb 70f 62f
10:18am 2 3 mph 1020.5mb 70f 62f
10:12am 3 6 mph 1020.5mb 70f 61f
10:06am 1 2 mph 1020.5mb 70f 61f
10:00am 1
mph
1020.4mb 70f 61f
9:54am 1 2 mph 1020.5mb 70f 60f
9:48am  -  3 mph 1020.5mb 70f 60f
9:42am 2 5 mph 1020.6mb 70f 60f
9:36am 3 5 mph 1020.6mb 70f 60f
9:30am 1 5 mph 1020.6mb 70f 60f
9:24am 2 5 mph 1020.6mb 70f 60f
9:18am 1 3 mph 1020.6mb 70f 60f
9:12am 1 3 mph 1020.7mb 70f 60f
9:06am 1 2 mph 1020.7mb 70f 60f
9:00am 1 2 mph 1020.8mb 70f 60f
8:54am 1 2 mph 1020.8mb 70f 59f
8:48am 2 5 mph 1020.8mb 70f 59f
8:42am 1 5 mph 1020.8mb 70f 60f
8:36am 2 5 mph 1020.8mb 70f 59f
8:30am 3 6 mph 1020.7mb 70f 59f
8:24am 2 3 mph 1020.8mb 70f 59f
8:18am 2 3 mph 1020.8mb 70f 58f
8:12am 3 5 mph 1020.8mb 70f 58f
8:06am 3 5 mph 1020.8mb 70f 58f
8:00am 3 6 mph 1020.9mb 70f 58f
7:54am 5 6 mph 1020.9mb 70f 58f
7:48am 5 6 mph 1020.8mb 70f 58f
7:42am 3 6 mph 1020.8mb 70f 58f
7:36am 5 6 mph 1020.8mb 70f 58f
7:30am 2 3 mph 1020.9mb 70f 59f
7:24am 2 5 mph 1020.9mb 70f 59f
7:18am 2 3 mph 1020.9mb 70f 59f
7:12am 2 3 mph 1020.8mb 70f 59f
7:06am 3 6 mph 1020.8mb 70f 59f
7:00am 6
mph
1020.8mb 70f 58f
6:54am 3 7 mph 1020.8mb 70f 59f
6:48am 5 6 mph 1020.8mb 70f 58f
6:42am 5 6 mph 1020.8mb 70f 59f
6:36am 5 10 mph 1020.7mb 70f 59f
6:30am 6 7 mph 1020.7mb 70f 59f
6:24am 1 3 mph 1020.7mb 70f 58f
6:18am  -  3 mph 1020.7mb 70f 58f
6:12am 1 3 mph 1020.7mb 70f 58f
6:06am 1 3 mph 1020.7mb 70f 58f
6:00am  -  3 mph 1020.7mb 70f 58f
5:54am 2 3 mph 1020.6mb 70f 58f
5:48am 1 3 mph 1020.6mb 70f 59f
5:42am 2 3 mph 1020.5mb 70f 59f
5:36am 3 7 mph 1020.5mb 70f 59f
5:30am 5 6 mph 1020.5mb 70f 59f
5:24am 3 6 mph 1020.5mb 70f 59f
5:18am 5 7 mph 1020.5mb 70f 59f
5:12am 5 6 mph 1020.5mb 70f 59f
5:06am 2 5 mph 1020.5mb 70f 59f
5:00am 6 7 mph 1020.5mb 70f 59f
4:54am 5 7 mph 1020.5mb 70f 59f
4:48am 5 7 mph 1020.5mb 69f 59f
4:42am 6 8 mph 1020.5mb 69f 59f
4:36am 7 9 mph 1020.4mb 69f 59f
4:30am 7 8 mph 1020.4mb 69f 59f
4:24am 5 8 mph 1020.4mb 69f 59f
4:18am 6 8 mph 1020.5mb 69f 59f
4:12am 5 8 mph 1020.5mb 69f 59f
4:06am 3 6 mph 1020.5mb 69f 60f
4:00am 3 7 mph 1020.5mb 69f 60f
3:54am 6 8 mph 1020.5mb 69f 59f
3:48am 6 8 mph 1020.5mb 69f 59f
3:42am 6 8 mph 1020.4mb 68f 60f
3:36am 6 8 mph 1020.4mb 68f 60f
3:30am 6 8 mph 1020.3mb 68f 60f
3:24am 7 8 mph 1020.3mb 68f 60f
3:18am 5 6 mph 1020.3mb 68f 60f
3:12am 2 3 mph 1020.3mb 68f 59f
3:06am 6 8 mph 1020.2mb 68f 60f
3:00am 3 6 mph 1020.3mb 68f 60f
2:54am 5 8 mph 1020.3mb 68f 60f
2:48am 3 7 mph 1020.2mb 68f 60f
2:42am 6 9 mph 1020.2mb 68f 60f
2:36am 7 8 mph 1020.1mb 68f 60f
2:30am 5 6 mph 1020mb 68f 60f
2:24am 3 5 mph 1020mb 68f 59f
2:18am 3 6 mph 1020mb 68f 60f
2:12am 5 6 mph 1020.1mb 68f 59f
2:06am 5 7 mph 1020.1mb 68f 59f
2:00am 5 7 mph 1020mb 68f 59f
1:54am 6 7 mph 1020mb 68f 59f
1:48am 6 7 mph 1020mb 68f 59f
1:42am 3 6 mph 1020.1mb 68f 59f
1:36am 5 7 mph 1020.1mb 68f 59f
1:30am 6 8 mph 1020.2mb 68f 59f
1:24am 6 7 mph 1020.2mb 68f 59f
1:18am 5 6 mph 1020.3mb 68f 59f
1:12am 3 6 mph 1020.3mb 68f 60f
1:06am 5 6 mph 1020.4mb 68f 60f
1:00am 3
mph
1020.5mb 68f 60f
12:54am 3 5 mph 1020.6mb 68f 60f
12:48am 3
mph
1020.6mb 68f 60f
12:42am 2 3 mph 1020.7mb 68f 60f
12:36am 2
mph
1020.7mb 68f 60f
12:30am 2 3 mph 1020.8mb 68f 60f
12:24am  -  3 mph 1020.8mb 68f 60f
12:18am 5 6 mph 1020.8mb 68f 60f
12:12am 3 5 mph 1020.8mb 68f 60f
12:06am 1 3 mph 1020.8mb 68f 60f
12:00am 2 7 mph 1020.9mb 68f 60f
Wed 07/27 11:54pm 5 8 mph 1021mb 68f 60f
11:48pm 5 7 mph 1021mb 68f -
11:42pm 5 7 mph 1021mb 68f -
11:36pm 5 6 mph 1021mb 68f -
11:30pm 5 7 mph 1020.9mb 68f 60f
11:24pm 6 9 mph 1021mb 68f 60f
11:18pm 10 13 mph 1021mb 68f 60f
11:12pm 8 10 mph 1021mb 68f 60f
11:06pm 10 11 mph 1021mb 68f 60f
11:00pm 9 11 mph 1021mb 68f 60f
10:54pm 7 9 mph 1021mb 69f 61f
10:48pm 6 7 mph 1020.9mb 69f -
10:42pm 6 8 mph 1020.8mb 69f -
10:36pm 5 7 mph 1020.8mb 69f -
10:30pm 7 8 mph 1020.8mb 69f 61f
10:24pm 5 6 mph 1020.8mb 69f 61f
10:18pm 5 6 mph 1020.7mb 68f 61f
10:12pm 3 5 mph 1020.7mb 69f 61f
10:06pm 1 3 mph 1020.7mb 69f 61f
10:00pm 2 6 mph 1020.7mb 69f 61f
9:54pm 3 6 mph 1020.7mb 69f 61f
9:48pm 5 6 mph 1020.8mb 69f 61f
9:42pm 5 7 mph 1020.7mb 69f 61f
9:36pm 5 7 mph 1020.6mb 69f 61f
9:30pm 5 7 mph 1020.6mb 69f 61f
9:24pm 5 7 mph 1020.5mb 69f 61f
9:18pm 6 8 mph 1020.4mb 68f 61f
9:12pm 7 8 mph 1020.4mb 68f 61f
9:06pm 7 8 mph 1020.4mb 68f 62f
9:00pm 3 5 mph 1020.3mb 68f 62f
8:54pm 5 6 mph 1020.3mb 68f 62f
8:48pm  -  3 mph 1020.3mb 68f 62f
8:42pm 3
mph
1020.3mb 68f 62f
8:36pm 3 6 mph 1020.3mb 68f 62f
8:30pm 5 7 mph 1020.3mb 68f 62f
8:24pm 5 6 mph 1020.3mb 68f 63f
8:18pm 5 7 mph - 68f -
8:12pm 6 7 mph - 68f -
8:06pm 6 8 mph - 68f -
8:00pm 2 7 mph 1020.3mb 68f -
7:54pm 6 8 mph 1020.3mb 68f -
7:48pm 5 7 mph - - -
7:42pm 7 9 mph - - -
7:36pm 7 9 mph - - -
7:30pm 2 3 mph - - -
7:24pm 6 13 mph - - -
7:18pm 8 11 mph - 70f -
7:12pm 7 11 mph - 70f -
7:06pm 10 13 mph - 70f -
7:00pm  -  mph - 70f -
6:54pm  -  mph - 70f -
6:48pm 9 13 mph - - -
6:42pm 9 13 mph - - -
6:36pm 7 15 mph - - -
6:30pm  -  mph 1020.3mb - -
6:24pm  -  mph 1020.4mb - -
6:18pm 13 15 mph - - -
6:12pm 10 14 mph - - -
6:06pm 9 15 mph - - -
6:00pm  -  mph - 71f -
5:54pm  -  mph - 71f -
5:48pm 13 16 mph 1020.4mb - -
5:42pm 14 18 mph 1020.5mb - -
5:36pm 13 18 mph 1020.5mb - -
5:30pm  -  mph 1020.6mb 71f -
5:24pm  -  mph 1020.6mb 71f -
5:18pm  -  mph - 71f 63f
5:12pm  -  mph - 71f 63f
4:54pm  -  mph - 71f 63f
4:48pm  -  mph 1020.6mb - -
4:42pm  -  mph 1020.5mb - -
4:36pm  -  mph 1020.4mb - -
4:30pm 10 18 mph - 71f -
4:24pm 13 20 mph - 71f -
4:18pm  -  mph - 71f 64f
4:12pm  -  mph - 71f 64f
4:06pm  -  mph - 71f 65f
4:00pm  -  mph - 71f 65f
3:54pm  -  mph - 71f 65f
3:48pm  -  mph - 71f 65f
3:42pm  -  mph - 71f 65f
3:36pm  -  mph - 71f 65f
3:30pm 10 18 mph - - -
3:24pm 14 17 mph - - -
3:18pm 11 17 mph 1020.4mb 71f 65f
3:12pm 11 18 mph 1020.4mb 71f 65f
3:06pm 10 16 mph 1020.5mb 71f 66f
3:00pm  -  mph - 71f -
2:54pm  -  mph - 71f -
2:48pm 9 14 mph - 70f 66f
2:42pm 8 14 mph - 70f 66f
2:36pm 8 15 mph - 70f 66f
2:30pm 11 15 mph 1020.6mb 69f 66f
2:24pm 10 14 mph 1020.6mb 69f 65f
2:18pm 8 13 mph 1020.6mb 70f 65f
2:12pm 8 13 mph 1020.7mb 70f 65f
2:06pm 8 13 mph 1020.8mb 70f 65f
2:00pm 10 14 mph 1020.8mb 70f 65f
1:54pm 9 14 mph 1020.8mb 70f 64f
1:48pm 11 16 mph 1020.9mb 70f 64f
1:42pm 8 14 mph 1020.9mb 70f 65f
1:36pm 10 14 mph 1021mb 70f 64f
1:30pm 13 16 mph 1021.2mb 70f 64f
1:24pm 11 15 mph 1021.2mb 70f 64f
1:18pm 10 15 mph 1021.1mb 70f 64f
1:12pm 13 15 mph 1021.2mb 70f 64f
1:06pm 11 15 mph 1021.3mb 70f 63f
1:00pm 6 13 mph 1021.4mb 70f 64f
12:54pm 7 13 mph 1021.3mb 70f 64f
12:48pm 7 13 mph 1021.3mb 70f 64f
12:42pm 7 10 mph 1021.4mb 70f 64f
12:36pm 7 10 mph 1021.4mb 70f 64f
12:30pm 3 7 mph 1021.4mb 70f 64f
12:24pm 2 9 mph 1021.4mb 70f 64f
12:18pm 5 9 mph 1021.4mb 69f 63f
12:12pm 5 8 mph 1021.4mb 69f 63f
12:06pm 6 9 mph 1021.4mb 69f 63f
12:00pm 3 8 mph 1021.4mb 69f 63f
11:54am 5 9 mph 1021.4mb 69f 63f
11:48am 5 8 mph 1021.5mb 69f 63f
11:42am 3 5 mph 1021.5mb 69f 62f
11:36am 2 6 mph 1021.5mb 69f 62f
11:30am 3 6 mph 1021.5mb 69f 62f
11:24am 2 5 mph 1021.3mb 69f 62f
11:18am 2 3 mph 1021.4mb 69f 62f
11:12am 3 5 mph 1021.4mb 69f 61f
11:06am 2
mph
1021.4mb 69f 62f
11:00am 1 2 mph 1021.4mb 69f 62f
10:54am 3
mph
1021.5mb 69f 61f
10:48am 2 3 mph 1021.4mb 69f 61f
10:42am 1 2 mph 1021.5mb 69f 61f
10:36am 5 8 mph 1021.6mb 69f 61f
10:30am 5 6 mph 1021.6mb 69f 61f
10:24am 3 6 mph 1021.6mb 69f 60f
10:18am 2 5 mph 1021.7mb 69f 61f
10:12am 2 3 mph 1021.6mb 69f 61f
10:06am 2 3 mph 1021.6mb 69f 61f
10:00am  -  6 mph 1021.4mb 69f 60f
9:54am 1 3 mph 1021.5mb 69f 61f
9:48am 2
mph
1021.4mb 69f 60f
9:42am 1 3 mph 1021.4mb 69f 60f
9:36am 3 5 mph 1021.4mb 70f 60f
9:30am 3 6 mph 1021.3mb 70f 60f
9:24am 2 5 mph 1021.3mb 70f 60f
9:18am 1 5 mph 1021.3mb 70f 60f
9:12am 1 6 mph 1021.4mb 70f 60f
9:06am 1 7 mph 1021.4mb 70f 61f
9:00am 1 5 mph 1021.3mb 70f 60f
8:54am 5
mph
1021.3mb 70f 60f
8:48am  -  5 mph 1021.2mb 70f 60f
8:42am 5 6 mph 1021.2mb 70f 59f
8:36am 3 5 mph 1021.2mb 70f 59f
8:30am 3 5 mph 1021.1mb 70f 59f
8:24am 2 5 mph 1021.1mb 70f 60f
8:18am 1 3 mph 1021mb 70f 59f
8:12am 1 3 mph 1020.9mb 70f 59f
8:06am 2 3 mph 1020.9mb 70f 59f
8:00am  -  2 mph 1020.9mb 70f 59f
7:54am  -  1 mph 1020.9mb 70f 59f
7:48am 1 3 mph 1020.9mb 70f 59f
7:42am 3 5 mph 1020.8mb 70f 59f
7:36am 3 5 mph 1020.8mb 70f 59f
7:30am 5 6 mph 1020.8mb 70f 59f
7:24am 3 7 mph 1020.8mb 70f 59f
7:18am 6 8 mph 1020.8mb 70f 59f
7:12am 6 7 mph 1020.8mb 70f 59f
7:06am 5 7 mph 1020.8mb 70f 59f
7:00am 6 8 mph 1020.8mb 70f 59f
6:54am 6 9 mph 1020.7mb 70f 59f
6:48am 7 9 mph 1020.6mb 70f 59f
6:42am 2 5 mph 1020.6mb 70f 59f
6:36am  -  2 mph 1020.7mb 70f 59f
6:30am 1 3 mph 1020.7mb 70f 59f
6:24am 2 3 mph 1020.8mb 70f 58f
6:18am 3 5 mph 1020.8mb 70f 58f
6:12am 3 5 mph 1020.8mb 70f 58f
6:06am 2 6 mph 1020.7mb 70f 58f
6:00am 5 6 mph 1020.7mb 70f 58f
5:54am 1 3 mph 1020.6mb 70f 58f
5:48am 2 3 mph 1020.5mb 70f 58f
5:42am 2 3 mph 1020.5mb 70f 58f
5:36am 2 3 mph 1020.5mb 70f 58f
5:30am 3 5 mph 1020.5mb 70f 58f
5:24am 3
mph
1020.5mb 70f 58f
5:18am 2
mph
1020.5mb 70f 58f
5:12am 2 3 mph 1020.5mb 70f 58f
5:06am 2 3 mph 1020.5mb 70f 58f
5:00am 2 3 mph 1020.5mb 70f 58f
4:54am 3 5 mph 1020.5mb 70f 58f
4:48am 3 5 mph 1020.5mb 70f 58f
4:42am 3 5 mph 1020.5mb 70f 58f
4:36am 3 5 mph 1020.5mb 70f 58f
4:30am 2 3 mph 1020.4mb 70f 59f
4:24am  -  3 mph 1020.4mb 70f 58f
4:18am 2 5 mph 1020.5mb 69f 58f
4:12am 2 5 mph 1020.5mb 69f 58f
4:06am 2 6 mph 1020.4mb 69f 58f
4:00am 2 3 mph 1020.4mb 69f 58f
3:54am 2 5 mph 1020.4mb 69f 58f
3:48am 5 6 mph 1020.4mb 69f 58f
3:42am 2
mph
1020.4mb 69f 59f
3:36am 2 3 mph 1020.4mb 69f 59f
3:30am 2 6 mph 1020.4mb 69f 59f
3:24am 2 3 mph 1020.5mb 69f 59f
3:18am 3 6 mph 1020.4mb 69f 59f
3:12am 3 5 mph 1020.4mb 69f 59f
3:06am 3 6 mph 1020.4mb 69f 59f
3:00am 2 3 mph 1020.5mb 69f 59f
2:54am  -  6 mph 1020.4mb 69f 59f
2:48am 5 7 mph 1020.4mb 69f 58f
2:42am 6 8 mph 1020.4mb 69f 58f
2:36am 8 10 mph 1020.4mb 69f 58f
2:30am 6 8 mph 1020.4mb 69f 59f
2:24am 5 8 mph 1020.5mb 69f 59f
2:18am 3 6 mph 1020.5mb 69f 59f
2:12am 5 6 mph 1020.5mb 68f 59f
2:06am 5 7 mph 1020.6mb 68f 59f
2:00am 6 8 mph 1020.6mb 68f 59f
1:54am 5 6 mph 1020.6mb 68f 59f
1:48am 5 7 mph 1020.7mb 68f 59f
1:42am 6 9 mph 1020.6mb 68f 59f
1:36am 5 7 mph 1020.7mb 68f 59f
1:30am 7 8 mph 1020.7mb 68f 59f
1:24am 6 8 mph 1020.8mb 68f 59f
1:18am 6 8 mph 1020.8mb 68f 59f
1:12am 2 10 mph 1020.8mb 68f 59f
1:06am 7 9 mph 1020.9mb 68f 59f
1:00am 6 8 mph 1020.9mb 68f 59f
12:54am 5 7 mph 1020.9mb 68f 59f
12:48am 6 8 mph 1021mb 68f 59f
12:42am 7 9 mph 1020.9mb 68f 59f
12:36am 6 9 mph 1021mb 68f 59f
12:30am 6 10 mph 1021mb 68f 59f
12:24am 9 13 mph 1021mb 68f 60f
12:18am 6 10 mph 1021mb 68f 60f
12:12am 3 5 mph 1021.1mb 68f 60f
12:06am 3 6 mph 1021.1mb 68f 60f
12:00am 2 6 mph 1021.2mb 68f 60f
Tue 07/26 11:54pm 5 9 mph 1021.3mb 68f 60f
11:48pm 6 8 mph 1021.3mb 68f 60f
11:42pm 8 9 mph 1021.3mb 68f 59f
11:36pm 7 9 mph 1021.3mb 68f 59f
11:30pm 6 10 mph 1021.3mb 68f 59f
11:24pm 8 11 mph 1021.3mb 68f 59f
11:18pm 8 13 mph 1021.4mb 68f 59f
11:12pm 9 13 mph 1021.3mb 68f 59f
11:06pm 11 15 mph 1021.4mb 68f 59f
11:00pm 13 15 mph 1021.4mb 68f 59f
10:54pm 10 16 mph 1021.4mb 68f 59f
10:48pm 15 16 mph 1021.5mb 68f 59f
10:42pm 13 14 mph 1021.5mb 68f 59f
10:36pm 11 15 mph 1021.6mb 68f 59f
10:30pm 13 15 mph 1021.6mb 68f 59f
10:24pm 8 10 mph 1021.6mb 68f 60f
10:18pm 6 8 mph 1021.7mb 68f 60f
10:12pm 5 9 mph 1021.7mb 68f 60f
10:06pm 7 11 mph 1021.7mb 68f 60f
10:00pm 8 10 mph 1021.7mb 69f 60f
9:54pm 8 11 mph 1021.7mb 69f 60f
9:48pm 7 10 mph 1021.7mb 69f 60f
9:42pm 6 9 mph 1021.7mb 69f 60f
9:36pm 6 8 mph 1021.7mb 69f 60f
9:30pm 6 9 mph 1021.6mb 69f 60f
9:24pm 7 10 mph 1021.6mb 69f 60f
9:18pm 7 9 mph 1021.6mb 69f 60f
9:12pm 5 10 mph 1021.6mb 69f 61f
9:06pm 7 9 mph 1021.5mb 69f 61f
9:00pm 7 11 mph 1021.5mb 69f 61f
8:54pm 6 10 mph 1021.4mb 69f 61f
8:48pm 9 11 mph 1021.4mb 69f 61f
8:42pm 9 14 mph 1021.4mb 69f 61f
8:36pm 9 13 mph 1021.4mb 69f 61f
8:30pm 7 13 mph 1021.3mb 69f 61f
8:24pm 6 13 mph 1021.3mb 69f 61f
8:18pm 9 15 mph 1021.3mb 69f -
8:12pm 7 10 mph 1021.3mb 69f -
8:06pm 8 11 mph 1021.3mb 69f -
8:00pm 7 11 mph - 69f -
7:54pm 6 10 mph - 69f -
7:48pm 6 8 mph 1021.3mb 69f -
7:42pm 6 10 mph 1021.3mb 69f -
7:36pm 3 10 mph 1021.2mb 69f -
7:30pm 6 11 mph - 69f 63f
7:24pm 9 11 mph - 69f 62f
7:18pm 10 14 mph 1021.2mb 69f 63f
7:12pm 8 11 mph 1021.2mb 69f 63f
7:06pm 7 11 mph 1021.2mb 69f 63f